This is the latest recevied weather packets stored in our database for station/object KC3BAN-3. If no packets are shown the sender has not sent any weather packets the latest 10 day(s).
| Time | Temp. | Humidity | Pressure | Rain* | Wind** | Luminosity | Snow |
|---|---|---|---|---|---|---|---|
| 1777745646 | 11.67° C | 95% | 1011.9 hPa | 0.25 mm | - | - | - |
| 1777745346 | 11.11° C | 96% | 1012.2 hPa | 0.25 mm | - | - | - |
| 1777745046 | 11.11° C | 95% | 1012.4 hPa | 0.25 mm | - | - | - |
| 1777744746 | 11.11° C | 95% | 1012.3 hPa | 0.25 mm | - | - | - |
| 1777744446 | 11.11° C | 95% | 1012.3 hPa | 0.25 mm | - | - | - |
| 1777744146 | 11.11° C | 96% | 1012.5 hPa | 0.25 mm | - | - | - |
| 1777743849 | 11.11° C | 96% | 1012.6 hPa | 0.25 mm | - | - | - |
| 1777743549 | 11.11° C | 96% | 1012.8 hPa | 0 mm | - | - | - |
| 1777743246 | 11.11° C | 97% | 1012.8 hPa | 0 mm | - | - | - |
| 1777743077 | 11.11° C | 96% | 1012.8 hPa | 0 mm | - | - | - |
| 1777742649 | 11.11° C | 96% | 1012.6 hPa | 0 mm | - | - | - |
| 1777742342 | 11.11° C | 96% | 1012.5 hPa | 0 mm | - | - | - |
| 1777742036 | 11.11° C | 96% | 1012.5 hPa | 0 mm | - | - | - |
| 1777741728 | 11.11° C | 96% | 1012.4 hPa | 0 mm | - | - | - |
| 1777741422 | 11.11° C | 96% | 1012.2 hPa | 0 mm | - | - | - |
| 1777741122 | 11.67° C | 97% | 1012.1 hPa | 0.25 mm | - | - | - |
| 1777740952 | 11.67° C | 97% | 1011.9 hPa | 0.25 mm | - | - | - |
| 1777740523 | 12.22° C | 97% | 1011.9 hPa | 0.25 mm | - | - | - |
| 1777740222 | 12.22° C | 97% | 1011.8 hPa | 0.51 mm | - | - | - |
| 1777740051 | 12.22° C | 97% | 1011.8 hPa | 0.51 mm | - | - | - |
| 1777739622 | 12.22° C | 97% | 1012 hPa | 0.51 mm | - | - | - |
| 1777739322 | 12.78° C | 97% | 1012 hPa | 0.51 mm | - | - | - |
| 1777739150 | 12.78° C | 97% | 1012.2 hPa | 0.76 mm | - | - | - |
| 1777738722 | 12.78° C | 97% | 1012.3 hPa | 0.76 mm | - | - | - |
| 1777738422 | 12.22° C | 97% | 1012.6 hPa | 0.76 mm | - | - | - |
* Rain latest hour (hover to see other rain measurements)
** Current wind speed in m/s (hover to see current wind gust speed)